User: anonymous   Login
Location: Marseilles
(40.7010°N, 83.3930°W)
Time: 02:44:54
(UTC-04:00)
Language:

Cosmos 1459 Rocket - Orbit

View from above orbital plane
View from above orbital plane
View from above satellite
View from above satellite

Ground track
Ground track

The orbit data is extracted from the following two-line orbital elements,

1 14059U 83042B   16208.85524051 +.00000032 +00000-0 +15458-4 0  9995
2 14059 082.9739 303.3930 0044057 100.4201 038.8346 13.78558986670665
Epoch (UTC): 26 July 2016 20:31:32
Eccentricity: 0.0044057
inclination: 82.9739°
perigee height: 936 km
apogee height: 1001 km
right ascension of ascending node: 303.3930°
argument of perigee: 100.4201°
revolutions per day: 13.78558986
mean anomaly at epoch: 38.8346°
orbit number at epoch: 67066

The dashed part of the orbit path shows where the satellite is in the earth's shadow,  

DLR